Tracking 29892 objects as of 21-Nov-2024
HD Live streaming from Space Station
objects crossing your sky now

STARLINK-3502

Track STARLINK-3502 now!
10-day predictions
STARLINK-3502 is classified as:


NORAD ID: 51746
Int'l Code: 2022-016AJ
Perigee: 545.9 km
Apogee: 547.9 km
Inclination: 53.2 °
Period: 95.4 minutes
Semi major axis: 6917 km
RCS: Unknown
Launch date: February 21, 2022
Source: United States (US)
Launch site: AIR FORCE EASTERN TEST RANGE (AFETR)
Your satellite tracking list
Your tracking list is empty




NASA's NSSDC Master Catalog

Two Line Element Set (TLE):
1 51746U 22016AJ  24325.90133619  .00000991  00000-0  80363-4 0  9995
2 51746  53.2181 276.0452 0001488  81.8123 278.3037 15.08836336152174
Source of the keplerian elements: AFSPC